User: anonymous   Login
Location: Caltech
(34.1382°N, 118.1253°W)
Time: 07:59:36
(UTC-08:00)
Language:

CZ-4B DEB - Orbit

View from above orbital plane
View from above orbital plane
View from above satellite
View from above satellite

Ground track
Ground track

The orbit data is extracted from the following two-line orbital elements,

1 27433U 02024D   17019.83133943  .00000087  00000-0  71849-4 0  9997
2 27433  98.9499 353.0469 0015396 107.8487 252.4365 14.12139763756235
Epoch (UTC): 19 January 2017 19:57:07
Eccentricity: 0.0015396
inclination: 98.9499°
perigee height: 841 km
apogee height: 863 km
right ascension of ascending node: 353.0469°
argument of perigee: 107.8487°
revolutions per day: 14.12139763
mean anomaly at epoch: 252.4365°
orbit number at epoch: 75623

The dashed part of the orbit path shows where the satellite is in the earth's shadow,  

DLR